EHI
7 14 24 27 22 11 2 0 1 0 0 0 0 0 1 2 2 4 17 41 62 61 51 48 42 27 13 5 2 0 0 0 0 0 0 0 0 0 0 0 0 0 0 0 0 0 0 0 0
7 15 20 19 14 6 1 0 1 0 0 0 0 1 1 2 3 8 25 50 64 57 46 47 44 29 14 5 2 0 0 0 0 0 0 0 0 0 0 0 0 0 0 0 0 0 0 0 0
6 10 11 10 6 2 0 0 0 0 0 0 1 3 6 6 7 17 36 56 64 55 49 51 47 30 12 3 1 0 0 0 0 0 0 0 0 0 0 0 0 0 0 0 0 0 0 0 0
4 4 4 4 3 1 0 0 0 0 0 1 3 7 14 15 16 25 38 54 63 59 54 53 47 29 10 1 0 0 0 0 0 0 0 0 0 0 0 0 0 0 0 0 0 0 0 0 0
3 2 1 1 1 0 0 0 0 0 0 2 4 13 23 25 27 31 35 49 64 65 56 51 44 27 8 1 0 0 0 0 0 0 0 0 0 0 0 0 0 0 0 0 0 0 0 0 0
1 1 1 0 0 0 0 0 0 0 0 1 5 17 33 38 37 35 33 45 64 69 61 49 37 21 7 1 0 0 0 0 0 0 0 0 0 0 0 0 0 0 0 0 0 0 0 0 0
0 0 0 0 0 0 0 0 0 0 0 0 4 21 45 54 45 34 32 44 62 70 62 46 28 15 7 2 0 0 0 0 0 0 0 0 0 0 0 0 0 0 0 0 0 0 0 0 0
0 0 0 0 0 0 0 0 0 0 0 1 7 28 58 66 51 36 34 45 61 66 56 38 21 12 6 1 0 0 0 0 0 0 0 0 0 0 0 0 0 0 0 0 0 0 0 0 0
0 0 0 0 0 0 0 0 0 0 2 8 20 43 65 71 61 49 45 52 64 64 50 31 19 13 6 2 1 1 0 0 0 0 0 0 0 0 0 0 0 0 0 0 0 0 0 0 0
0 0 0 0 0 0 0 0 0 0 4 17 35 53 67 72 72 65 58 62 68 64 48 33 24 16 10 8 6 3 2 2 1 0 0 0 0 0 0 0 1 0 0 0 0 0 0 0 0
0 0 0 0 0 0 0 0 0 1 6 19 37 53 65 74 76 72 66 65 68 64 54 43 33 24 19 17 12 7 5 4 2 1 1 0 0 0 0 1 1 0 0 0 0 0 0 0 0
0 0 0 0 0 0 0 0 0 3 9 18 33 48 61 71 74 72 68 66 66 64 59 51 42 37 35 27 16 11 9 6 3 3 2 1 1 2 2 2 1 0 0 0 0 0 1 1 1
0 0 0 0 0 0 0 0 2 8 14 19 29 45 58 66 71 72 70 67 64 62 59 55 53 53 50 40 27 19 15 10 8 7 4 3 4 4 5 4 3 2 2 2 0 0 1 2 2
0 0 0 0 0 0 0 1 5 12 16 18 26 40 54 63 68 71 69 65 62 60 59 60 60 60 57 48 38 29 20 15 14 11 7 6 8 9 9 6 4 4 4 3 1 1 1 1 1
0 0 0 0 0 0 0 3 8 11 12 17 25 37 52 62 66 67 66 63 60 59 59 60 59 58 54 46 37 29 21 18 20 18 12 9 12 15 13 9 6 5 5 3 2 1 1 0 0
0 0 0 0 0 0 1 4 8 9 12 19 25 34 49 59 62 62 63 63 61 60 58 56 54 52 48 41 34 28 23 23 26 26 20 15 15 15 13 11 8 6 4 3 2 2 1 0 1
0 0 0 0 0 0 1 4 7 8 13 20 26 35 46 55 60 62 64 65 64 62 58 53 49 47 44 41 40 38 33 32 32 30 26 20 14 12 9 9 8 5 2 2 3 3 1 0 1
0 0 0 0 0 0 1 3 7 9 12 21 30 39 47 54 61 66 66 66 64 62 58 52 47 43 41 42 45 44 38 34 32 30 28 22 13 8 7 6 6 3 1 2 3 3 1 0 1
0 0 0 0 0 1 1 3 8 10 12 21 33 44 50 56 63 68 66 63 61 61 58 51 44 41 40 40 42 40 34 30 29 28 28 21 12 7 6 6 5 3 2 3 3 2 1 0 0
0 0 0 0 0 1 2 4 8 11 14 21 31 41 47 55 64 67 64 61 59 60 56 47 41 39 36 35 36 34 29 27 27 28 25 18 12 8 7 8 7 5 4 3 1 1 0 0 0
0 0 0 0 0 1 1 4 9 12 12 17 26 35 41 50 61 66 63 60 59 59 53 45 41 38 32 27 27 28 26 24 26 27 23 16 11 8 8 8 7 6 6 4 2 1 0 0 0
0 0 0 0 0 0 1 3 7 9 9 11 19 30 37 45 55 62 61 57 55 53 47 43 43 39 29 22 20 21 21 20 23 25 22 17 11 7 6 6 5 5 6 5 2 1 1 0 0
0 0 0 0 0 0 0 2 4 6 7 8 13 25 36 44 53 57 56 51 46 44 41 40 42 39 31 24 20 19 17 17 19 21 21 17 11 8 6 5 5 5 4 3 1 1 1 1 0
0 0 0 0 0 0 0 1 2 3 4 6 11 20 32 42 50 54 52 47 42 38 36 37 41 39 33 27 23 20 18 18 18 18 18 14 10 8 6 6 6 5 3 1 1 1 2 1 1
0 0 0 0 0 0 0 1 1 1 1 5 9 15 25 36 44 50 50 48 44 40 37 37 39 39 34 28 25 24 21 18 16 15 13 9 6 7 9 9 8 6 3 2 1 1 1 1 2
0 0 0 0 0 0 0 0 1 0 0 2 7 11 19 29 38 42 46 48 47 45 43 41 40 37 33 30 30 31 27 20 16 15 11 6 4 8 14 15 11 7 4 2 1 1 1 2 3
0 0 0 0 0 0 0 0 1 1 0 2 5 9 14 23 33 37 40 44 46 46 46 45 42 37 33 32 33 34 32 24 18 17 13 10 8 11 19 20 13 7 4 3 3 1 1 3 3
0 0 0 0 0 0 0 0 1 1 1 2 5 8 12 20 29 34 37 39 41 44 44 44 43 39 35 33 31 32 33 28 23 23 22 20 19 20 22 21 14 8 4 4 5 3 2 3 3
0 0 0 0 0 0 0 0 0 1 1 2 5 7 13 20 29 35 36 36 37 40 40 41 43 41 37 34 31 31 32 31 29 29 30 30 30 29 25 20 14 8 4 6 7 6 4 4 4
0 0 0 0 0 0 0 0 1 1 1 2 4 7 13 23 32 37 38 35 34 37 39 40 42 42 39 37 36 33 31 32 33 32 33 35 36 34 27 20 14 7 4 6 9 8 6 5 5
Wind_Speed
10 13 11 7 4 5 4 7 10 10 10 10 8 7 10 12 9 7 10 16 21 21 18 17 16 15 14 14 14 14 14 13 13 12 12 11 11 11 11 11 11 11 12 12 12 12 12 12 12
11 14 11 5 5 4 3 7 9 10 8 5 5 7 10 11 9 10 13 18 22 21 18 16 17 16 15 15 14 14 14 13 13 12 11 11 11 11 11 11 11 11 12 12 12 12 12 12 11
14 18 9 4 7 5 5 8 7 8 6 5 5 7 9 8 8 9 14 19 21 19 17 18 19 17 16 15 14 14 14 14 13 12 11 11 10 11 11 11 11 11 12 11 12 12 12 11 10
10 9 5 6 9 4 6 6 5 5 4 4 5 5 9 8 6 11 15 18 20 19 19 19 19 18 17 15 14 14 14 13 13 12 11 11 11 11 11 11 11 11 11 11 12 11 11 11 10
11 6 6 8 10 3 6 5 4 3 3 4 5 7 8 7 9 14 14 17 18 18 18 18 19 18 17 16 15 14 14 13 12 12 11 11 11 11 11 11 11 11 11 11 11 11 10 10 9
8 6 7 6 6 3 5 4 3 3 3 2 3 7 8 8 10 12 13 14 17 18 18 17 18 18 16 16 15 14 14 13 12 12 11 11 11 11 11 11 11 11 10 10 10 10 9 9 7
10 9 11 10 5 3 3 3 3 2 2 2 2 6 8 8 9 11 12 13 15 18 18 15 15 14 15 15 15 14 14 13 12 12 11 11 11 11 11 11 10 10 10 9 9 9 8 7 6
9 9 11 9 5 3 4 4 3 3 2 3 1 5 9 12 11 11 11 13 14 16 17 15 14 13 12 12 14 14 14 13 12 12 11 11 11 11 11 11 9 9 9 8 8 8 7 6 5
12 9 9 9 5 4 5 4 3 1 1 2 5 7 13 16 15 14 12 12 12 12 13 15 15 13 13 12 13 13 12 12 12 10 11 10 7 8 8 11 10 9 8 8 7 6 6 6 6
10 9 11 8 7 7 7 7 6 2 1 5 7 7 15 15 15 14 14 14 14 13 11 11 14 13 12 11 10 7 8 8 7 6 8 5 4 5 8 11 10 9 8 7 7 6 6 6 5
12 13 12 10 7 8 8 7 6 4 2 4 8 10 13 14 13 13 13 14 14 14 11 10 11 10 10 8 8 5 4 5 5 6 5 3 4 5 6 5 6 6 7 5 6 6 5 4 2
13 13 12 11 9 9 9 8 6 4 4 5 8 11 12 13 13 12 12 12 13 12 11 9 8 7 7 8 6 5 4 4 4 4 4 3 2 2 4 3 4 4 3 3 3 2 1 2 2
13 14 14 12 11 9 9 8 5 5 5 6 8 11 11 11 11 11 10 11 12 12 12 10 9 7 6 5 5 6 5 5 5 4 3 4 3 2 3 2 1 2 3 3 2 1 2 1 1
13 13 13 13 12 10 9 6 3 3 2 3 6 8 10 10 11 11 11 12 12 11 10 10 9 9 7 5 3 4 5 3 5 5 4 3 3 3 2 2 1 1 2 2 1 2 2 1 1
14 15 13 13 14 9 7 4 2 6 6 3 5 6 8 9 10 10 12 12 12 11 9 10 9 9 8 7 6 4 4 5 4 4 4 3 3 4 2 2 2 1 2 2 1 2 2 2 2
16 15 14 12 14 8 7 4 5 5 5 4 5 6 7 7 9 10 12 12 12 12 10 9 10 9 7 6 5 4 4 4 4 4 4 3 4 4 2 2 2 1 2 2 1 1 2 1 2
16 14 14 10 10 7 6 4 4 5 4 5 6 5 6 7 7 9 12 12 12 12 11 9 8 9 8 6 4 3 3 3 4 4 4 3 4 4 2 2 2 2 1 1 2 2 1 1 2
13 13 10 8 7 7 6 5 4 5 4 6 7 8 7 8 8 9 10 12 11 11 11 10 9 8 7 5 4 3 4 3 3 3 4 4 3 3 2 3 2 1 1 2 2 2 1 0 1
16 16 13 8 8 8 7 8 2 2 2 5 7 8 9 9 10 10 11 12 12 11 11 10 10 9 7 5 5 5 4 4 3 4 6 5 4 3 1 2 3 1 1 2 2 2 2 2 1
15 15 15 12 9 9 9 7 1 3 3 4 7 8 10 11 12 12 11 11 12 12 11 10 9 9 8 6 5 4 4 4 4 4 5 5 5 4 4 2 3 2 2 2 1 1 1 2 2
16 15 14 13 12 11 10 7 2 2 4 5 6 8 9 11 14 13 12 11 12 12 13 11 10 9 8 8 5 5 3 2 3 5 4 4 5 4 2 3 1 2 2 3 2 1 2 1 1
15 15 15 14 13 9 8 7 3 2 4 6 6 9 10 11 13 13 12 12 12 12 12 11 10 9 9 8 7 8 7 5 6 5 4 5 5 4 4 3 2 1 1 4 3 3 1 1 1
15 14 13 13 12 12 9 8 3 4 5 7 9 10 11 12 13 13 13 12 11 12 12 11 10 9 9 9 8 8 7 5 5 5 6 5 4 4 5 4 3 2 1 3 1 3 1 1 2
14 14 13 11 10 11 8 8 6 5 6 7 9 10 11 11 12 12 12 11 9 10 10 10 10 9 9 9 9 8 8 7 7 7 7 5 4 4 5 5 4 3 2 3 2 2 2 1 2
13 11 9 9 6 7 8 8 6 5 6 7 10 11 11 11 12 12 12 11 10 10 10 10 11 10 10 9 8 8 8 7 7 7 7 6 5 5 6 6 5 3 3 3 2 2 1 2 1
13 14 12 11 7 5 3 5 5 2 4 7 10 11 11 11 11 12 12 11 10 10 10 10 11 10 10 9 8 7 7 6 6 6 6 6 4 5 7 6 6 4 4 4 3 3 3 2 1
16 14 15 14 13 11 6 5 3 1 3 6 10 10 10 10 11 11 12 12 10 10 9 10 10 10 10 10 8 7 7 7 7 7 6 5 4 5 8 7 6 5 5 3 4 3 2 3 3
16 14 9 9 10 10 5 1 1 4 4 7 9 10 10 10 11 11 11 11 11 10 9 9 10 10 9 9 8 8 8 7 6 6 6 5 4 4 6 6 6 5 5 4 4 3 3 3 3
13 14 12 9 9 8 6 2 3 5 5 5 8 10 10 10 10 10 10 10 10 10 10 9 9 9 9 9 8 7 7 7 6 5 5 5 4 4 5 5 5 5 5 5 4 5 4 5 4
13 13 12 10 9 8 7 2 6 6 5 4 7 10 10 10 10 10 9 9 9 10 10 9 9 9 8 7 7 6 7 7 7 6 5 5 4 4 5 5 4 5 5 5 5 6 5 4 5
Wind_Direction
231 239 232 244 258 253 293 49 53 50 52 48 42 39 57 51 60 96 133 133 123 125 131 132 130 130 128 127 128 128 127 124 123 121 118 116 114 110 106 102 100 99 97 95 95 94 93 93 95
258 254 239 236 257 282 35 58 60 59 57 56 57 50 70 70 77 108 126 127 129 130 137 134 134 132 130 128 128 128 127 126 125 123 121 118 115 111 109 104 101 100 99 98 97 96 96 97 98
261 266 265 237 250 280 42 57 61 69 67 53 52 56 60 71 81 109 128 133 132 133 134 132 138 134 132 130 130 131 130 129 127 125 124 121 118 115 111 107 102 100 100 98 96 96 97 99 100
258 252 256 270 284 326 47 60 61 70 73 71 69 70 72 67 91 119 133 138 132 134 133 137 139 137 135 133 133 132 132 130 128 126 125 123 117 114 111 107 103 101 100 98 98 98 98 100 102
248 259 255 274 291 345 57 55 61 63 51 61 82 98 90 85 102 123 141 138 134 135 133 139 140 139 138 137 136 134 132 130 129 127 126 122 117 114 113 109 107 103 101 100 100 100 102 103 105
261 254 261 284 294 7 59 61 53 50 39 47 84 107 107 120 121 133 145 140 138 133 131 137 140 140 140 140 139 137 135 133 131 128 126 123 121 116 114 112 109 106 104 103 103 103 103 105 108
262 275 278 286 285 26 37 49 32 63 76 28 63 108 115 113 119 137 143 133 132 130 131 139 143 142 142 142 142 141 139 137 137 133 130 129 126 124 120 117 115 113 110 109 110 109 109 112 116
264 287 300 300 311 19 28 22 9 355 75 67 35 106 131 131 140 139 140 134 130 132 136 144 147 146 149 147 146 144 143 141 140 139 139 138 136 135 134 128 123 122 120 121 121 123 125 129 135
261 268 283 296 328 3 5 350 336 342 30 69 40 76 128 139 147 146 147 138 131 133 143 153 149 152 155 152 147 147 147 146 146 149 152 155 157 146 151 127 134 134 133 135 140 146 153 156 166
244 260 277 308 338 342 342 328 312 288 62 85 92 105 130 146 149 154 158 153 144 146 157 153 147 156 158 150 144 153 157 154 170 159 167 181 164 146 132 135 145 148 149 153 166 177 187 201 184
251 263 285 306 323 328 320 315 319 317 69 118 147 152 149 152 158 164 165 161 153 155 153 144 146 158 150 135 150 159 154 157 178 162 173 167 153 147 134 152 153 164 169 179 171 196 214 195 162
255 275 288 296 304 304 307 312 316 354 60 104 136 152 154 161 167 171 167 163 156 148 145 144 142 147 135 140 149 150 148 159 155 159 178 162 156 145 138 150 167 175 171 170 178 202 185 127 148
254 264 274 280 283 289 291 293 325 18 61 97 125 143 154 164 166 169 165 161 155 151 152 149 142 131 126 127 149 154 146 160 152 160 183 161 152 138 130 126 144 171 143 161 180 161 120 105 153
278 279 283 286 282 276 282 305 6 16 292 131 135 143 155 163 161 161 163 163 156 152 148 141 139 132 132 137 148 149 146 148 152 163 162 169 138 124 129 129 133 109 114 106 146 140 132 174 150
278 280 281 280 273 265 283 292 148 193 219 169 139 142 145 152 154 162 161 158 156 151 144 140 140 140 146 154 168 165 157 159 148 138 139 159 135 130 139 137 170 134 123 125 159 136 150 185 170
273 267 264 264 264 257 263 274 153 198 196 149 142 137 136 139 156 159 156 155 151 148 149 153 153 148 157 167 176 167 156 145 136 137 138 149 125 138 159 154 136 146 150 151 143 185 173 157 144
264 264 264 258 243 256 273 298 148 208 189 156 143 131 140 144 152 148 152 152 150 150 154 159 151 155 163 170 174 151 132 130 132 139 137 142 143 148 178 109 107 199 168 160 181 131 116 136 146
268 277 274 272 265 268 282 284 195 195 190 162 148 146 153 150 147 144 148 148 148 152 156 159 157 157 158 165 161 141 132 135 131 129 131 146 152 158 171 134 143 240 145 102 71 86 73 52 209
275 288 292 284 279 284 291 292 263 158 197 164 157 156 158 153 144 141 147 150 152 154 158 161 163 162 162 164 165 160 157 154 149 143 144 155 149 144 218 117 147 251 100 112 139 134 160 223 210
273 280 284 288 289 290 292 289 272 155 209 176 164 162 160 153 148 147 151 158 161 163 164 165 170 168 167 169 170 166 159 166 151 134 144 152 150 158 178 130 176 139 118 113 102 124 212 218 174
269 269 274 284 287 281 291 286 267 173 183 169 169 158 160 161 157 158 162 167 168 168 171 173 173 170 170 168 167 160 149 161 137 138 156 161 158 170 133 139 145 137 174 149 187 202 237 250 176
263 265 271 277 281 283 286 285 259 223 200 180 175 162 166 158 156 159 165 170 175 172 171 171 168 170 171 174 176 169 171 173 164 160 155 158 167 167 149 154 132 146 109 138 201 176 233 260 255
265 271 274 279 284 282 285 287 238 194 193 194 180 167 160 156 158 161 168 174 175 173 171 168 169 173 176 180 180 182 178 171 163 154 149 161 169 174 160 157 150 174 192 134 133 121 249 262 273
259 268 273 275 278 276 284 282 262 202 178 171 164 151 151 154 156 159 165 168 171 171 168 167 166 174 179 181 183 191 183 178 167 159 158 172 166 181 169 161 156 186 173 129 144 144 200 307 342
241 249 256 252 252 266 295 275 257 183 155 156 143 141 146 151 156 160 166 168 171 173 170 170 169 174 178 182 187 191 186 181 172 169 170 183 174 178 173 168 164 187 153 150 167 186 230 202 271
243 241 249 265 267 266 260 260 274 126 132 130 132 138 147 155 156 160 164 163 169 173 173 172 172 173 177 181 186 186 178 179 178 184 179 193 191 176 161 161 169 186 174 180 173 201 202 181 205
245 246 252 263 267 265 223 218 257 183 160 145 139 140 148 149 150 158 161 163 168 173 176 177 172 174 181 183 180 179 180 189 184 176 188 194 191 163 157 164 171 184 184 194 169 231 214 156 198
240 250 255 261 274 280 271 304 303 262 209 153 144 144 144 146 152 155 159 163 168 171 171 170 169 176 179 180 182 180 181 189 184 179 189 190 183 157 153 164 173 182 181 192 197 234 207 192 214
223 238 253 271 273 278 289 270 206 239 251 182 152 145 145 147 146 150 155 161 165 168 169 167 167 170 176 181 184 178 177 182 182 185 184 180 176 160 167 173 177 186 188 189 198 237 211 200 219
238 233 236 248 267 274 281 233 166 184 231 223 151 142 140 141 141 143 145 151 161 167 169 169 170 173 176 178 177 179 175 175 179 183 179 176 175 179 181 183 185 197 198 193 199 226 230 211 219